Date,TemperatureHighF,TemperatureAvgF,TemperatureLowF,DewpointHighF,DewpointAvgF,DewpointLowF,HumidityHigh,HumidityAvg,HumidityLow,PressureMaxIn,PressureMinIn,WindSpeedMaxMPH,WindSpeedAvgMPH,GustSpeedMaxMPH,PrecipitationSumIn
2013-4-1,63,48,37,49,38,16,98,71,38,29.90,29.60,17,3,22,0.00
2013-4-2,44,37,28,22,18,16,70,47,34,30.06,29.90,13,4,22,0.00
2013-4-3,47,38,29,22,18,15,61,45,32,30.28,30.06,16,3,21,0.00
2013-4-4,54,40,27,30,23,16,69,50,36,30.37,30.05,12,2,15,0.00
2013-4-5,64,48,39,34,30,24,80,51,27,30.05,29.69,11,2,20,0.00
2013-4-6,54,43,34,30,22,18,69,45,27,30.28,29.98,8,2,13,0.00
2013-4-7,64,49,35,46,37,29,81,65,40,30.28,29.95,19,3,21,0.00
2013-4-8,77,60,42,53,47,39,92,66,35,30.04,29.93,10,1,12,0.00
2013-4-9,84,69,53,58,50,44,86,56,26,29.94,29.84,18,2,20,0.00
2013-4-10,84,66,57,62,55,50,97,70,46,29.91,29.75,6,1,13,0.65
2013-4-11,60,56,47,60,53,43,98,89,73,29.98,29.72,9,1,10,0.01
2013-4-12,48,44,42,43,42,41,96,92,78,29.96,29.67,10,2,17,0.53
2013-4-13,60,49,38,45,40,37,97,74,47,29.95,29.72,12,2,14,0.02
2013-4-14,60,52,41,42,37,33,92,60,38,30.17,29.94,12,2,19,0.00
2013-4-15,60,51,44,42,37,31,77,59,50,30.33,30.17,6,0,9,0.00
2013-4-16,72,59,47,60,51,42,90,76,57,30.33,30.07,12,2,18,0.00
2013-4-17,73,62,52,58,47,38,94,61,29,30.25,30.06,7,0,11,0.00
2013-4-18,59,53,47,52,47,43,93,82,64,30.30,30.05,4,0,7,0.00
2013-4-19,79,67,55,67,62,53,96,85,64,30.05,29.58,17,3,21,0.21
2013-4-20,59,52,46,53,39,29,95,63,40,30.28,29.67,13,4,18,0.14
2013-4-21,56,45,35,33,28,22,68,51,35,30.59,30.28,6,0,9,0.00
2013-4-22,53,44,32,41,35,30,92,71,49,30.61,30.44,5,1,12,0.00
2013-4-23,51,45,40,44,38,33,88,78,71,30.44,30.09,5,0,11,0.00
2013-4-24,74,55,36,58,47,34,94,76,54,30.09,29.76,9,1,13,0.00
2013-4-25,65,55,44,56,37,33,84,53,31,30.24,29.82,13,2,18,0.00
2013-4-26,66,53,37,40,36,33,88,57,31,30.37,30.23,6,0,13,0.00
2013-4-27,70,55,37,41,37,33,92,55,32,30.40,30.23,5,0,9,0.00
2013-4-28,72,56,40,49,41,35,90,59,38,30.28,30.15,5,0,11,0.00
2013-4-29,56,53,51,52,50,44,97,89,65,30.20,30.13,2,0,3,0.12
2013-4-30,66,56,45,52,46,33,97,72,34,30.30,30.16,4,0,9,0.00